Meteo pe oră la Daegu

Astăzi, 17 Aprilie, Sâmbătă

Timp Temperatura Precipitaţii Vânt Presiune Umiditate
00:00 +13°C° 0 mm 1 m/s 758 mmHg 84%
01:00 +13°C° 0 mm 1 m/s 757 mmHg 84%
02:00 +12°C° 0 mm 1 m/s 757 mmHg 84%
03:00 +12°C° 0 mm 1 m/s 756 mmHg 84%
04:00 +11°C° 0 mm 1 m/s 756 mmHg 84%
05:00 +11°C° 0 mm 1 m/s 756 mmHg 83%
06:00 +10°C° 0 mm 1 m/s 756 mmHg 83%
07:00 +12°C° 0 mm 1 m/s 755 mmHg 72%
08:00 +14°C° 0 mm 1 m/s 755 mmHg 61%
09:00 +15°C° 0 mm 0 m/s 755 mmHg 50%
10:00 +17°C° 0.1 mm 2 m/s 754 mmHg 47%
11:00 +17°C° 0.1 mm 3 m/s 754 mmHg 44%
12:00 +17°C° 0.1 mm 5 m/s 754 mmHg 42%
13:00 +17°C° 0 mm 6 m/s 753 mmHg 36%
14:00 +16°C° 0 mm 6 m/s 753 mmHg 30%
15:00 +16°C° 0 mm 7 m/s 752 mmHg 24%
16:00 +15°C° 0 mm 7 m/s 753 mmHg 29%
17:00 +13°C° 0 mm 6 m/s 753 mmHg 33%
18:00 +11°C° 0 mm 6 m/s 754 mmHg 38%
19:00 +9°C° 0 mm 5 m/s 754 mmHg 39%
20:00 +8°C° 0 mm 5 m/s 755 mmHg 41%
21:00 +7°C° 0 mm 4 m/s 755 mmHg 42%
22:00 +6°C° 0 mm 4 m/s 755 mmHg 46%
23:00 +6°C° 0 mm 4 m/s 755 mmHg 49%

Mâine, 18 Aprilie, Duminică

Timp Temperatura Precipitaţii Vânt Presiune Umiditate
00:00 +5°C° 0 mm 3 m/s 755 mmHg 52%
01:00 +5°C° 0 mm 4 m/s 755 mmHg 58%
02:00 +5°C° 0 mm 4 m/s 755 mmHg 63%
03:00 +5°C° 0 mm 4 m/s 755 mmHg 69%
04:00 +5°C° 0 mm 4 m/s 755 mmHg 70%
05:00 +5°C° 0 mm 4 m/s 755 mmHg 71%
06:00 +5°C° 0 mm 4 m/s 756 mmHg 72%
07:00 +6°C° 0 mm 5 m/s 756 mmHg 65%
08:00 +8°C° 0 mm 5 m/s 756 mmHg 59%
09:00 +9°C° 0 mm 5 m/s 756 mmHg 53%
10:00 +10°C° 0 mm 5 m/s 756 mmHg 47%
11:00 +13°C° 0 mm 5 m/s 756 mmHg 40%
12:00 +15°C° 0 mm 5 m/s 756 mmHg 33%
13:00 +15°C° 0 mm 5 m/s 756 mmHg 31%
14:00 +16°C° 0 mm 5 m/s 755 mmHg 28%
15:00 +18°C° 0 mm 4 m/s 755 mmHg 26%
16:00 +17°C° 0 mm 4 m/s 755 mmHg 30%
17:00 +15°C° 0 mm 4 m/s 755 mmHg 33%
18:00 +16°C° 0 mm 3 m/s 755 mmHg 36%
19:00 +13°C° 0 mm 3 m/s 756 mmHg 41%
20:00 +12°C° 0 mm 2 m/s 757 mmHg 46%
21:00 +10°C° 0 mm 2 m/s 757 mmHg 52%
22:00 +10°C° 0 mm 1 m/s 758 mmHg 55%
23:00 +9°C° 0 mm 1 m/s 758 mmHg 58%

Poimâine, 19 Aprilie, Luni

Timp Temperatura Precipitaţii Vânt Presiune Umiditate
00:00 +9°C° 0 mm 1 m/s 758 mmHg 61%
01:00 +8°C° 0 mm 1 m/s 758 mmHg 62%
02:00 +8°C° 0 mm 1 m/s 758 mmHg 64%
03:00 +7°C° 0 mm 1 m/s 758 mmHg 65%
04:00 +7°C° 0 mm 1 m/s 758 mmHg 65%
05:00 +7°C° 0 mm 1 m/s 758 mmHg 66%
06:00 +7°C° 0 mm 1 m/s 758 mmHg 66%
07:00 +9°C° 0 mm 1 m/s 758 mmHg 56%
08:00 +12°C° 0 mm 1 m/s 758 mmHg 46%
09:00 +14°C° 0 mm 1 m/s 758 mmHg 36%
10:00 +16°C° 0 mm 2 m/s 758 mmHg 32%
11:00 +18°C° 0 mm 3 m/s 757 mmHg 28%
12:00 +20°C° 0 mm 3 m/s 757 mmHg 24%
13:00 +21°C° 0 mm 4 m/s 757 mmHg 23%
14:00 +22°C° 0 mm 4 m/s 756 mmHg 23%
15:00 +22°C° 0 mm 5 m/s 756 mmHg 22%
16:00 +21°C° 0 mm 4 m/s 756 mmHg 25%
17:00 +20°C° 0 mm 4 m/s 756 mmHg 29%
18:00 +20°C° 0 mm 3 m/s 756 mmHg 32%
19:00 +18°C° 0 mm 3 m/s 756 mmHg 37%
20:00 +16°C° 0 mm 2 m/s 757 mmHg 42%
21:00 +14°C° 0 mm 1 m/s 757 mmHg 47%
22:00 +13°C° 0 mm 1 m/s 758 mmHg 48%
23:00 +13°C° 0 mm 1 m/s 758 mmHg 50%

20 Aprilie, Marţi

Timp Temperatura Precipitaţii Vânt Presiune Umiditate
00:00 +12°C° 0 mm 1 m/s 758 mmHg 51%
01:00 +12°C° 0 mm 1 m/s 758 mmHg 53%
02:00 +11°C° 0 mm 1 m/s 758 mmHg 54%
03:00 +11°C° 0 mm 1 m/s 758 mmHg 55%
04:00 +10°C° 0 mm 1 m/s 759 mmHg 56%
05:00 +10°C° 0 mm 1 m/s 759 mmHg 57%
06:00 +10°C° 0 mm 1 m/s 759 mmHg 58%
07:00 +12°C° 0 mm 1 m/s 760 mmHg 51%
08:00 +15°C° 0 mm 1 m/s 760 mmHg 43%
09:00 +17°C° 0 mm 2 m/s 760 mmHg 36%
10:00 +19°C° 0 mm 2 m/s 760 mmHg 32%
11:00 +21°C° 0 mm 2 m/s 760 mmHg 28%
12:00 +24°C° 0 mm 3 m/s 760 mmHg 24%
13:00 +25°C° 0 mm 2 m/s 759 mmHg 24%
14:00 +26°C° 0 mm 2 m/s 759 mmHg 23%
15:00 +26°C° 0 mm 2 m/s 759 mmHg 23%
16:00 +25°C° 0 mm 2 m/s 759 mmHg 27%
17:00 +25°C° 0 mm 1 m/s 759 mmHg 32%
18:00 +24°C° 0 mm 1 m/s 759 mmHg 36%
19:00 +21°C° 0 mm 1 m/s 760 mmHg 41%
20:00 +19°C° 0 mm 1 m/s 760 mmHg 47%
21:00 +16°C° 0 mm 1 m/s 761 mmHg 52%
22:00 +15°C° 0 mm 1 m/s 761 mmHg 55%
23:00 +14°C° 0 mm 1 m/s 762 mmHg 57%

21 Aprilie, Miercuri

Timp Temperatura Precipitaţii Vânt Presiune Umiditate
00:00 +14°C° 0 mm 1 m/s 762 mmHg 60%
01:00 +13°C° 0 mm 1 m/s 762 mmHg 62%
02:00 +12°C° 0 mm 0 m/s 762 mmHg 64%
03:00 +11°C° 0 mm 0 m/s 763 mmHg 66%
04:00 +11°C° 0 mm 0 m/s 763 mmHg 67%
05:00 +11°C° 0 mm 0 m/s 763 mmHg 68%
06:00 +11°C° 0 mm 0 m/s 763 mmHg 69%
07:00 +13°C° 0 mm 0 m/s 763 mmHg 61%
08:00 +16°C° 0 mm 0 m/s 763 mmHg 54%
09:00 +19°C° 0 mm 0 m/s 764 mmHg 46%
10:00 +21°C° 0 mm 0 m/s 763 mmHg 40%
11:00 +25°C° 0 mm 1 m/s 763 mmHg 35%
12:00 +27°C° 0 mm 1 m/s 762 mmHg 30%
13:00 +28°C° 0 mm 1 m/s 762 mmHg 28%
14:00 +28°C° 0 mm 1 m/s 761 mmHg 27%
15:00 +29°C° 0 mm 1 m/s 760 mmHg 25%
16:00 +27°C° 0 mm 1 m/s 760 mmHg 31%
17:00 +26°C° 0 mm 1 m/s 760 mmHg 36%
18:00 +25°C° 0 mm 1 m/s 760 mmHg 42%
19:00 +23°C° 0 mm 1 m/s 761 mmHg 48%
20:00 +21°C° 0 mm 1 m/s 761 mmHg 54%
21:00 +19°C° 0 mm 1 m/s 761 mmHg 60%
22:00 +18°C° 0 mm 1 m/s 761 mmHg 61%
23:00 +16°C° 0 mm 1 m/s 761 mmHg 62%

22 Aprilie, Joi

Timp Temperatura Precipitaţii Vânt Presiune Umiditate
00:00 +16°C° 0 mm 1 m/s 762 mmHg 63%
01:00 +15°C° 0 mm 1 m/s 761 mmHg 63%
02:00 +14°C° 0 mm 0 m/s 761 mmHg 62%
03:00 +14°C° 0 mm 0 m/s 761 mmHg 61%
04:00 +14°C° 0 mm 0 m/s 761 mmHg 62%
05:00 +14°C° 0 mm 0 m/s 761 mmHg 62%
06:00 +13°C° 0 mm 0 m/s 761 mmHg 62%
07:00 +16°C° 0 mm 0 m/s 760 mmHg 55%
08:00 +18°C° 0 mm 0 m/s 760 mmHg 48%
09:00 +20°C° 0 mm 0 m/s 760 mmHg 41%
10:00 +24°C° 0 mm 1 m/s 759 mmHg 36%
11:00 +25°C° 0 mm 1 m/s 759 mmHg 31%
12:00 +26°C° 0 mm 1 m/s 758 mmHg 26%
13:00 +27°C° 0 mm 2 m/s 758 mmHg 25%
14:00 +27°C° 0 mm 2 m/s 757 mmHg 24%
15:00 +28°C° 0 mm 3 m/s 757 mmHg 22%
16:00 +26°C° 0 mm 3 m/s 757 mmHg 27%
17:00 +25°C° 0 mm 3 m/s 756 mmHg 32%
18:00 +24°C° 0 mm 3 m/s 756 mmHg 37%
19:00 +21°C° 0 mm 2 m/s 757 mmHg 44%
20:00 +19°C° 0 mm 2 m/s 757 mmHg 51%
21:00 +18°C° 0 mm 1 m/s 758 mmHg 58%
22:00 +18°C° 0 mm 1 m/s 758 mmHg 58%
23:00 +18°C° 0 mm 1 m/s 758 mmHg 59%
Arată mai mult

Formular de consimțământ

Meteoprog și furnizorii noștri de servicii pot stoca și accesa date personale, precum cookies, identificatori de dispozitiv sau alte tehnologii similare pe dispozitivul dumneavoastră și procesa astfel de date pentru a personaliza conținutul și reclamele, dar și pentru a oferi caracteristici de social media și pentru a analiza traficul.

  • Stocarea și/sau accesarea informațiilor pe dispozitivul dumneavoastră

    Cookies, identificatori de dispozitiv sau alte informații pot fi stocate sau accesate pe dispozitiv în scopurile indicate mai sus.

  • Reclame și conținut personalizat, evaluarea reclamelor și a conținutului, informații despre audiențe și dezvoltarea produselor

    Reclamele și conținutul pot fi personalizate pe baza unui profil. Pot fi adăugate date suplimentare pentru a personaliza mai bine reclamele și conținutul. Performanța reclamelor și conținutului poate fi măsurată. Pot fi obținute informații despre utilizatorii care au văzut reclamele și conținutul. Aceste date pot fi utilizate pentru a dezvolta sau îmbunătăți experiența utilizatorilor, sistemele și software-ul.

Dând clic pe ‘Sunt de acord’, permiteți utilizarea cookie-urilor menționate, a identificatorilor de dispozitiv, balizelor web sau altor tehnologii similare. Setările pot fi modificate din browser-ul dispozitivului dumneavoastră.

În anumite scopuri, interesele legitime pot prima asupra consimțământului. Puteți citi mai multe informații în acest sens în Politica privind Confidențialitatea Datelor și Cookie.